Mason, MI

11:31 AM EDT on April 23, 2018 (GMT -0400)
Mason Jewett

Weather History for KTEW - February, 2013

Change the Weather History Date:

Tuesday, February 26, 2013

  Actual Average (KLAN) Record (KLAN)
Temperature  
Mean Temperature 32 °F -  
Max Temperature 35 °F 35 °F 61 °F (1944)
Min Temperature 29 °F 18 °F -12 °F (1963)
Degree Days  
Heating Degree Days 33    
Moisture  
Dew Point 26 °F    
Average Humidity 80    
Maximum Humidity 95    
Minimum Humidity 66    
Precipitation  
Precipitation 0.00 in - - ()
Sea Level Pressure  
Sea Level Pressure 29.78 in    
Wind  
Wind Speed 10 mph (ENE)    
Max Wind Speed 20 mph    
Max Gust Speed 29 mph    
Visibility 6 miles    
Events Rain , Snow    
Averages and records for this station are not official NWS values.
T = Trace of Precipitation, MM = Missing Value Source: NWS Daily Summary

Daily Weather History Graph

Daily Weather History Graph

Search for Another Location

Airport or City:

Astronomy

Feb. 26, 2013 Rise Set
Actual Time 7:17 AM EST 6:23 PM EST
Civil Twilight 6:49 AM EST 6:52 PM EST
Nautical Twilight 6:16 AM EST 7:25 PM EST
Astronomical Twilight 5:44 AM EST 7:57 PM EST
Moon 7:42 PM EST (2/26) 7:17 AM EST (2/26)
Length of Visible Light 12h 03m
Length of Day
11h 06m
Full, 99% of the Moon is Illuminated
Feb 26
Full
Mar 4
Last Quarter
Mar 11
New
Mar 19
First Quarter
Mar 27
Full

Hourly Weather History & Observations

Time (EST) Temp. Windchill Dew Point Humidity Pressure Visibility Wind Dir Wind Speed Gust Speed Precip Events Conditions
12:15 AM 30.4 °F 24.5 °F 22.5 °F 72% 30.09 in 10.0 mi ESE 5.8 mph - N/A   Clear
12:36 AM 30.2 °F 25.4 °F 22.1 °F 72% 30.08 in 10.0 mi East 4.6 mph - N/A   Clear
12:55 AM 29.8 °F 24.9 °F 22.1 °F 73% 30.08 in 10.0 mi East 4.6 mph - N/A   Clear
1:15 AM 29.3 °F 23.2 °F 21.9 °F 74% 30.08 in 10.0 mi East 5.8 mph - N/A   Clear
1:35 AM 29.3 °F 23.2 °F 21.9 °F 74% 30.06 in 10.0 mi East 5.8 mph - N/A   Clear
1:55 AM 29.7 °F 22.8 °F 21.6 °F 72% 30.06 in 10.0 mi East 6.9 mph - N/A   Clear
2:15 AM 29.8 °F 23.0 °F 21.4 °F 71% 30.06 in 10.0 mi East 6.9 mph - N/A   Clear
2:35 AM 29.8 °F 23.0 °F 21.2 °F 70% 30.06 in 10.0 mi East 6.9 mph - N/A   Clear
2:55 AM 29.8 °F 23.0 °F 21.2 °F 70% 30.04 in 10.0 mi East 6.9 mph - N/A   Clear
3:16 AM 29.7 °F 22.8 °F 21.4 °F 71% 30.03 in 10.0 mi East 6.9 mph - N/A   Clear
3:35 AM 29.8 °F 22.2 °F 21.6 °F 71% 30.03 in 10.0 mi East 8.1 mph - N/A   Clear
3:55 AM 29.3 °F 21.5 °F 21.7 °F 73% 30.01 in 10.0 mi East 8.1 mph - N/A   Clear
4:16 AM 29.5 °F 21.8 °F 21.6 °F 72% 30.00 in 10.0 mi ENE 8.1 mph - N/A   Clear
4:35 AM 29.3 °F 23.2 °F 21.9 °F 74% 30.01 in 10.0 mi ENE 5.8 mph - N/A   Clear
4:55 AM 29.3 °F 20.8 °F 22.1 °F 75% 29.98 in 10.0 mi ENE 9.2 mph - N/A   Clear
5:16 AM 29.3 °F 20.2 °F 22.1 °F 75% 29.97 in 10.0 mi ENE 10.4 mph - N/A   Clear
5:35 AM 29.7 °F 19.6 °F 22.1 °F 73% 29.95 in 10.0 mi ENE 12.7 mph - N/A   Clear
5:55 AM 29.7 °F 19.1 °F 22.1 °F 73% 29.96 in 10.0 mi ENE 13.8 mph - N/A   Clear
6:16 AM 29.3 °F 20.2 °F 22.1 °F 75% 29.96 in 10.0 mi ENE 10.4 mph - N/A   Clear
6:35 AM 29.3 °F 19.1 °F 22.1 °F 75% 29.93 in 10.0 mi ENE 12.7 mph - N/A   Clear
6:55 AM 29.7 °F 20.1 °F 22.3 °F 74% 29.95 in 10.0 mi ENE 11.5 mph - N/A   Clear
7:16 AM 29.8 °F 19.8 °F 22.5 °F 74% 29.94 in 10.0 mi ENE 12.7 mph - N/A   Clear
7:35 AM 29.8 °F 20.9 °F 22.8 °F 75% 29.93 in 10.0 mi ENE 10.4 mph - N/A   Clear
7:55 AM 29.8 °F 20.3 °F 22.8 °F 75% 29.93 in 10.0 mi ENE 11.5 mph - N/A   Clear
8:16 AM 30.2 °F 20.8 °F 22.8 °F 74% 29.93 in 10.0 mi ENE 11.5 mph - N/A   Clear
8:35 AM 30.7 °F 21.4 °F 23.0 °F 73% 29.93 in 10.0 mi ENE 11.5 mph - N/A   Clear
8:56 AM 31.1 °F 22.4 °F 23.0 °F 72% 29.93 in 10.0 mi East 10.4 mph 16.1 mph N/A   Clear
9:15 AM 31.3 °F 20.3 °F 23.0 °F 71% 29.88 in 10.0 mi NE 16.1 mph 24.2 mph N/A   Clear
9:35 AM 31.3 °F 21.6 °F 23.2 °F 72% 29.89 in 10.0 mi ENE 12.7 mph 18.4 mph N/A   Scattered Clouds
9:56 AM 31.6 °F 21.6 °F 23.5 °F 72% 29.86 in 10.0 mi ENE 13.8 mph - N/A   Clear
10:15 AM 31.8 °F 22.3 °F 23.5 °F 71% 29.83 in 10.0 mi ENE 12.7 mph 19.6 mph N/A   Clear
10:35 AM 32.0 °F 22.1 °F 23.7 °F 71% 29.83 in 10.0 mi East 13.8 mph 18.4 mph N/A   Clear
10:56 AM 33.1 °F 22.2 °F 23.9 °F 69% 29.81 in 10.0 mi ENE 17.3 mph 24.2 mph N/A   Clear
11:15 AM 33.8 °F 22.5 °F 24.1 °F 68% 29.81 in 10.0 mi ENE 19.6 mph 24.2 mph N/A   Clear
11:35 AM 33.8 °F 22.5 °F 24.3 °F 68% 29.79 in 10.0 mi ENE 19.6 mph 24.2 mph N/A   Clear
11:56 AM 34.3 °F 24.6 °F 24.3 °F 67% 29.78 in 10.0 mi ENE 15.0 mph 21.9 mph N/A   Clear
12:15 PM 34.7 °F 25.1 °F 24.8 °F 67% 29.77 in 10.0 mi East 15.0 mph 20.7 mph N/A   Scattered Clouds
12:35 PM 35.4 °F 25.3 °F 25.0 °F 66% 29.75 in 10.0 mi ENE 17.3 mph 25.3 mph N/A   Mostly Cloudy
12:56 PM 34.3 °F 25.5 °F 25.7 °F 71% 29.73 in 10.0 mi East 12.7 mph 24.2 mph N/A Rain Light Rain
1:15 PM 33.8 °F 22.8 °F 27.0 °F 76% 29.71 in 5.0 mi ENE 18.4 mph 24.2 mph N/A Rain Rain
1:35 PM 33.8 °F 23.9 °F 27.5 °F 78% 29.69 in 7.0 mi ENE 15.0 mph 24.2 mph N/A Rain Light Rain
1:56 PM 33.8 °F 23.2 °F 28.0 °F 79% 29.67 in 5.0 mi ENE 17.3 mph 23.0 mph N/A Rain Light Rain
2:15 PM 33.8 °F 23.5 °F 28.4 °F 81% 29.65 in 5.0 mi ENE 16.1 mph 25.3 mph N/A Rain Light Rain
2:35 PM 33.8 °F 23.9 °F 29.1 °F 83% 29.64 in 3.0 mi ENE 15.0 mph 28.8 mph N/A Rain Light Rain
2:56 PM 33.8 °F 23.9 °F 29.7 °F 85% 29.63 in 4.0 mi ENE 15.0 mph 24.2 mph N/A Rain Light Rain
3:15 PM 33.8 °F 24.3 °F 29.8 °F 85% 29.64 in 3.0 mi East 13.8 mph 24.2 mph N/A Rain Rain
3:35 PM 33.4 °F 24.3 °F 30.2 °F 88% 29.63 in 2.0 mi East 12.7 mph 20.7 mph N/A Rain Rain
3:56 PM 33.3 °F 23.2 °F 30.6 °F 90% 29.63 in 2.5 mi East 15.0 mph 20.7 mph N/A Rain Rain
4:15 PM 33.3 °F 25.7 °F 30.7 °F 90% 29.64 in 4.0 mi East 9.2 mph 19.6 mph N/A Rain Light Rain
4:36 PM 33.3 °F 24.6 °F 30.7 °F 90% 29.62 in 1.0 mi ENE 11.5 mph 20.7 mph N/A Snow Light Snow
4:55 PM 33.3 °F 24.1 °F 31.1 °F 92% 29.62 in 0.8 mi ENE 12.7 mph 24.2 mph N/A Snow Light Snow
5:16 PM 33.1 °F 23.9 °F 31.1 °F 92% 29.61 in 0.8 mi ENE 12.7 mph 20.7 mph N/A Snow Light Snow
5:35 PM 32.9 °F 23.7 °F 31.3 °F 94% 29.61 in 0.5 mi ENE 12.7 mph 19.6 mph N/A Snow Snow
5:56 PM 33.1 °F 23.0 °F 31.6 °F 94% 29.59 in 0.5 mi ENE 15.0 mph 21.9 mph N/A Snow Light Snow
6:16 PM 33.1 °F 22.2 °F 31.6 °F 94% 29.59 in 0.5 mi ENE 17.3 mph - N/A Snow Snow
6:35 PM 33.3 °F 23.2 °F 32.0 °F 95% 29.58 in 0.5 mi ENE 15.0 mph 19.6 mph N/A Snow Snow
6:56 PM 33.3 °F 22.8 °F 32.0 °F 95% 29.58 in 1.2 mi ENE 16.1 mph 21.9 mph N/A Snow Light Snow
7:16 PM 33.4 °F 23.5 °F 32.0 °F 94% 29.58 in 1.8 mi ENE 15.0 mph 23.0 mph N/A Snow Light Snow
7:35 PM 33.4 °F 24.3 °F 32.0 °F 94% 29.57 in 1.8 mi ENE 12.7 mph 18.4 mph N/A Snow Light Snow
7:56 PM 33.4 °F 24.3 °F 32.0 °F 94% 29.57 in 2.0 mi ENE 12.7 mph 20.7 mph N/A Snow Light Snow
8:16 PM 33.4 °F 24.3 °F 32.0 °F 94% 29.56 in 1.5 mi ENE 12.7 mph - N/A Snow Light Snow
8:35 PM 33.4 °F 24.3 °F 32.0 °F 94% 29.55 in 1.5 mi ENE 12.7 mph - N/A Snow Light Snow
8:56 PM 33.4 °F 24.8 °F 32.0 °F 94% 29.55 in 1.2 mi ENE 11.5 mph 19.6 mph N/A Snow Light Snow
9:15 PM 33.3 °F 24.1 °F 32.0 °F 95% 29.54 in 1.5 mi ENE 12.7 mph - N/A Snow Light Snow
9:36 PM 33.3 °F 24.1 °F 32.0 °F 95% 29.54 in 0.8 mi ENE 12.7 mph 17.3 mph N/A Snow Snow
9:56 PM 33.3 °F 24.6 °F 32.0 °F 95% 29.53 in 1.2 mi ENE 11.5 mph 17.3 mph N/A Snow Light Snow
10:16 PM 33.3 °F 25.1 °F 32.0 °F 95% 29.52 in 1.8 mi ENE 10.4 mph - N/A Snow Light Snow
10:35 PM 33.3 °F 24.1 °F 32.0 °F 95% 29.51 in 2.0 mi ENE 12.7 mph 16.1 mph N/A Snow Light Snow
10:56 PM 33.4 °F 25.4 °F 32.0 °F 94% 29.50 in 2.0 mi ENE 10.4 mph - N/A Snow Light Snow
11:16 PM 33.4 °F 24.3 °F 32.0 °F 94% 29.50 in 2.5 mi ENE 12.7 mph 16.1 mph N/A Snow Light Snow
11:55 PM 33.3 °F 25.1 °F 32.0 °F 95% 29.49 in 2.0 mi ENE 10.4 mph 16.1 mph N/A Snow Light Snow